Location: Hermaringen
(48.5952°N, 10.2585°E)
Time: 10:14:18
(UTC+00:00)

A-11 Canister half - Pass Details

Date: 18 February 2026
Orbit: 1513 x 1687 km, 47.2° (Epoch: 11 March)

Event Time Altitude Azimuth Distance (km) Brightness Sun altitude
Rises 22:30:44 0° 262° (W) 4,931 11.8 -50.6°
Reaches altitude 10° 22:33:55 10° 262° (W) 3,933 11.2 -50.8°
Enters shadow 22:34:11 11° 262° (W) 3,851 11.1 -50.8°
